Time,TemperatureF,DewpointF,PressureIn,WindDirection,WindDirectionDegrees,WindSpeedMPH,WindSpeedGustMPH,Humidity,HourlyPrecipIn,Conditions,Clouds,dailyrainin,SoftwareType,DateUTC
2013-07-22 00:00:00,68.2,67.3,29.66,West,281,0.0,0.0,97,0.00,,,0.01,Wunderground v.1.15,2013-07-22 04:00:00,
2013-07-22 00:01:00,68.3,67.4,29.66,West,281,0.0,0.0,97,0.00,,,0.01,Wunderground v.1.15,2013-07-22 04:01:00,
2013-07-22 00:02:00,68.3,67.4,29.66,West,281,0.0,0.0,97,0.00,,,0.00,Wunderground v.1.15,2013-07-22 04:02:00,
2013-07-22 00:03:00,68.3,67.4,29.66,West,281,0.0,0.0,97,0.00,,,0.00,Wunderground v.1.15,2013-07-22 04:03:00,
2013-07-22 00:04:00,68.2,67.3,29.66,West,281,0.0,0.0,97,0.00,,,0.00,Wunderground v.1.15,2013-07-22 04:04:00,
2013-07-22 00:05:00,68.2,67.0,29.66,West,281,0.0,0.0,96,0.00,,,0.00,Wunderground v.1.15,2013-07-22 04:05:00,
2013-07-22 00:10:00,68.1,66.9,29.66,West,281,0.0,0.0,96,0.00,,,0.01,Wunderground v.1.15,2013-07-22 04:10:00,
2013-07-22 00:15:00,68.1,66.9,29.66,West,281,0.0,0.0,96,0.00,,,0.01,Wunderground v.1.15,2013-07-22 04:15:00,
2013-07-22 00:21:00,68.0,66.8,29.66,West,281,0.0,0.0,96,0.00,,,0.01,Wunderground v.1.15,2013-07-22 04:21:00,
2013-07-22 00:26:00,67.9,66.7,29.65,West,281,0.0,0.0,96,0.00,,,0.01,Wunderground v.1.15,2013-07-22 04:26:00,
2013-07-22 00:32:00,67.9,67.0,29.65,West,281,0.0,0.0,97,0.00,,,0.01,Wunderground v.1.15,2013-07-22 04:32:00,
2013-07-22 00:37:00,67.9,67.0,29.65,West,281,0.0,0.0,97,0.00,,,0.01,Wunderground v.1.15,2013-07-22 04:37:00,
2013-07-22 00:43:00,67.9,67.0,29.65,West,281,0.0,0.0,97,0.00,,,0.01,Wunderground v.1.15,2013-07-22 04:43:00,
2013-07-22 00:48:00,67.9,67.0,29.65,West,281,0.0,0.0,97,0.00,,,0.01,Wunderground v.1.15,2013-07-22 04:48:00,
2013-07-22 00:54:00,67.8,66.9,29.65,West,281,0.0,0.0,97,0.00,,,0.01,Wunderground v.1.15,2013-07-22 04:54:00,
2013-07-22 00:59:00,67.7,66.8,29.65,West,281,0.0,0.0,97,0.00,,,0.01,Wunderground v.1.15,2013-07-22 04:59:00,
2013-07-22 01:04:00,67.6,66.4,29.65,West,281,0.0,0.0,96,0.00,,,0.01,Wunderground v.1.15,2013-07-22 05:04:00,
2013-07-22 01:10:00,67.5,66.3,29.64,West,281,0.0,0.0,96,0.00,,,0.01,Wunderground v.1.15,2013-07-22 05:10:00,
2013-07-22 01:16:00,67.4,66.2,29.64,West,281,0.0,0.0,96,0.00,,,0.01,Wunderground v.1.15,2013-07-22 05:16:00,
2013-07-22 01:21:00,67.3,66.1,29.64,West,281,0.0,0.0,96,0.00,,,0.01,Wunderground v.1.15,2013-07-22 05:21:00,
2013-07-22 01:27:00,67.2,66.3,29.64,West,281,0.0,0.0,97,0.00,,,0.01,Wunderground v.1.15,2013-07-22 05:27:00,
2013-07-22 01:33:00,67.2,66.3,29.64,West,281,0.0,0.0,97,0.00,,,0.01,Wunderground v.1.15,2013-07-22 05:33:00,
2013-07-22 01:39:00,67.1,66.2,29.63,West,281,0.0,0.0,97,0.00,,,0.01,Wunderground v.1.15,2013-07-22 05:39:00,
2013-07-22 01:45:00,67.1,66.2,29.63,West,281,0.0,0.0,97,0.00,,,0.01,Wunderground v.1.15,2013-07-22 05:45:00,
2013-07-22 01:50:00,67.1,66.2,29.62,West,281,0.0,0.0,97,0.00,,,0.01,Wunderground v.1.15,2013-07-22 05:50:00,
2013-07-22 01:56:00,66.9,65.7,29.62,West,281,0.0,0.0,96,0.00,,,0.01,Wunderground v.1.15,2013-07-22 05:56:00,
2013-07-22 02:01:00,66.8,65.9,29.62,West,281,0.0,0.0,97,0.00,,,0.01,Wunderground v.1.15,2013-07-22 06:01:00,
2013-07-22 02:07:00,66.8,65.9,29.61,West,281,0.0,0.0,97,0.00,,,0.01,Wunderground v.1.15,2013-07-22 06:07:00,
2013-07-22 02:12:00,66.8,65.9,29.61,West,281,0.0,0.0,97,0.00,,,0.01,Wunderground v.1.15,2013-07-22 06:12:00,
2013-07-22 02:18:00,66.7,65.8,29.61,West,281,0.0,0.0,97,0.00,,,0.01,Wunderground v.1.15,2013-07-22 06:18:00,
2013-07-22 02:23:00,66.7,65.8,29.60,West,281,0.0,0.0,97,0.00,,,0.01,Wunderground v.1.15,2013-07-22 06:23:00,
2013-07-22 02:29:00,66.7,65.8,29.60,West,281,0.0,0.0,97,0.00,,,0.01,Wunderground v.1.15,2013-07-22 06:29:00,
2013-07-22 02:35:00,66.6,65.7,29.60,West,281,0.0,0.0,97,0.00,,,0.01,Wunderground v.1.15,2013-07-22 06:35:00,
2013-07-22 02:41:00,66.6,65.7,29.59,West,281,0.0,0.0,97,0.00,,,0.01,Wunderground v.1.15,2013-07-22 06:41:00,
2013-07-22 02:48:00,66.6,65.7,29.59,West,281,0.0,0.0,97,0.00,,,0.01,Wunderground v.1.15,2013-07-22 06:48:00,
2013-07-22 02:54:00,66.6,65.7,29.59,West,281,0.0,0.0,97,0.00,,,0.01,Wunderground v.1.15,2013-07-22 06:54:00,
2013-07-22 02:59:00,66.6,65.7,29.59,West,281,0.0,0.0,97,0.00,,,0.01,Wunderground v.1.15,2013-07-22 06:59:00,
2013-07-22 03:05:00,66.5,65.6,29.59,West,281,0.0,0.0,97,0.00,,,0.01,Wunderground v.1.15,2013-07-22 07:05:00,
2013-07-22 03:10:00,66.6,65.7,29.59,West,281,0.0,0.0,97,0.00,,,0.01,Wunderground v.1.15,2013-07-22 07:10:00,
2013-07-22 03:16:00,66.6,65.7,29.58,West,281,0.0,0.0,97,0.00,,,0.01,Wunderground v.1.15,2013-07-22 07:16:00,
2013-07-22 03:22:00,66.6,65.7,29.58,West,281,0.0,0.0,97,0.00,,,0.01,Wunderground v.1.15,2013-07-22 07:22:00,
2013-07-22 03:28:00,66.6,65.7,29.58,West,281,0.0,1.0,97,0.00,,,0.01,Wunderground v.1.15,2013-07-22 07:28:00,
2013-07-22 03:34:00,66.7,65.8,29.58,NW,306,1.0,1.0,97,0.00,,,0.01,Wunderground v.1.15,2013-07-22 07:34:00,
2013-07-22 03:39:00,66.8,65.9,29.58,NW,320,0.0,1.0,97,0.00,,,0.01,Wunderground v.1.15,2013-07-22 07:39:00,
2013-07-22 03:45:00,66.8,65.9,29.58,NW,319,0.0,1.0,97,0.00,,,0.01,Wunderground v.1.15,2013-07-22 07:45:00,
2013-07-22 03:50:00,66.9,66.0,29.58,NNW,329,0.0,0.0,97,0.00,,,0.01,Wunderground v.1.15,2013-07-22 07:50:00,
2013-07-22 03:55:00,66.9,66.0,29.57,NW,319,0.0,1.0,97,0.00,,,0.01,Wunderground v.1.15,2013-07-22 07:55:00,
2013-07-22 04:00:00,66.8,65.9,29.58,NW,318,0.0,0.0,97,0.00,,,0.01,Wunderground v.1.15,2013-07-22 08:00:00,
2013-07-22 04:06:00,66.8,65.9,29.58,NNW,345,0.0,2.0,97,0.00,,,0.01,Wunderground v.1.15,2013-07-22 08:06:00,
2013-07-22 04:11:00,66.7,65.8,29.57,NNW,345,0.0,1.0,97,0.00,,,0.01,Wunderground v.1.15,2013-07-22 08:11:00,
2013-07-22 04:17:00,66.7,65.8,29.58,NNW,345,0.0,1.0,97,0.00,,,0.01,Wunderground v.1.15,2013-07-22 08:17:00,
2013-07-22 04:23:00,66.6,65.7,29.57,NNW,337,0.0,0.0,97,0.00,,,0.01,Wunderground v.1.15,2013-07-22 08:23:00,
2013-07-22 04:29:00,66.6,65.7,29.57,NNW,337,0.0,0.0,97,0.00,,,0.01,Wunderground v.1.15,2013-07-22 08:29:00,
2013-07-22 04:34:00,66.6,65.7,29.57,NNW,337,0.0,1.0,97,0.00,,,0.01,Wunderground v.1.15,2013-07-22 08:34:00,
2013-07-22 04:39:00,66.6,65.7,29.57,NW,318,1.0,3.0,97,0.00,,,0.01,Wunderground v.1.15,2013-07-22 08:39:00,
2013-07-22 04:45:00,66.6,65.7,29.58,NW,313,1.0,2.0,97,0.00,,,0.01,Wunderground v.1.15,2013-07-22 08:45:00,
2013-07-22 04:50:00,66.6,65.7,29.57,West,261,0.0,0.0,97,0.00,,,0.01,Wunderground v.1.15,2013-07-22 08:50:00,
2013-07-22 04:56:00,66.6,65.7,29.57,NW,305,1.0,2.0,97,0.00,,,0.01,Wunderground v.1.15,2013-07-22 08:56:00,
2013-07-22 05:01:00,66.6,65.7,29.58,NW,316,1.0,2.0,97,0.00,,,0.01,Wunderground v.1.15,2013-07-22 09:01:00,
2013-07-22 05:07:00,66.5,65.6,29.57,NW,317,1.0,3.0,97,0.00,,,0.01,Wunderground v.1.15,2013-07-22 09:07:00,
2013-07-22 05:13:00,66.5,65.6,29.57,NW,317,1.0,1.0,97,0.00,,,0.01,Wunderground v.1.15,2013-07-22 09:13:00,
2013-07-22 05:18:00,66.5,65.6,29.57,NW,309,1.0,3.0,97,0.00,,,0.01,Wunderground v.1.15,2013-07-22 09:18:00,
2013-07-22 05:24:00,66.5,65.6,29.57,NW,307,1.0,2.0,97,0.00,,,0.01,Wunderground v.1.15,2013-07-22 09:24:00,
2013-07-22 05:29:00,66.5,65.6,29.58,NNW,338,1.0,2.0,97,0.00,,,0.01,Wunderground v.1.15,2013-07-22 09:29:00,
2013-07-22 05:35:00,66.5,65.6,29.58,NNE,18,0.0,2.0,97,0.00,,,0.01,Wunderground v.1.15,2013-07-22 09:35:00,
2013-07-22 05:40:00,66.5,65.6,29.58,NNE,18,0.0,0.0,97,0.00,,,0.01,Wunderground v.1.15,2013-07-22 09:40:00,
2013-07-22 05:45:00,66.5,65.6,29.58,WSW,257,0.0,2.0,97,0.00,,,0.01,Wunderground v.1.15,2013-07-22 09:45:00,
2013-07-22 05:50:00,66.4,65.5,29.58,NNW,331,0.0,2.0,97,0.00,,,0.01,Wunderground v.1.15,2013-07-22 09:50:00,
2013-07-22 05:56:00,66.4,65.5,29.58,NW,322,0.0,3.0,97,0.00,,,0.01,Wunderground v.1.15,2013-07-22 09:56:00,
2013-07-22 06:02:00,66.4,65.5,29.57,NW,322,0.0,0.0,97,0.00,,,0.01,Wunderground v.1.15,2013-07-22 10:02:00,
2013-07-22 06:08:00,66.3,65.4,29.58,NW,320,0.0,2.0,97,0.00,,,0.01,Wunderground v.1.15,2013-07-22 10:08:00,
2013-07-22 06:13:00,66.3,65.4,29.58,NW,320,0.0,0.0,97,0.00,,,0.01,Wunderground v.1.15,2013-07-22 10:13:00,
2013-07-22 06:18:00,66.3,65.4,29.58,West,278,0.0,3.0,97,0.00,,,0.01,Wunderground v.1.15,2013-07-22 10:18:00,
2013-07-22 06:24:00,66.2,65.3,29.58,West,279,0.0,0.0,97,0.00,,,0.01,Wunderground v.1.15,2013-07-22 10:24:00,
2013-07-22 06:30:00,66.2,65.3,29.58,West,279,0.0,0.0,97,0.00,,,0.01,Wunderground v.1.15,2013-07-22 10:30:00,
2013-07-22 06:35:00,66.3,65.4,29.58,NW,309,0.0,2.0,97,0.00,,,0.01,Wunderground v.1.15,2013-07-22 10:35:00,
2013-07-22 06:41:00,66.3,65.4,29.58,NW,321,0.0,1.0,97,0.00,,,0.01,Wunderground v.1.15,2013-07-22 10:41:00,
2013-07-22 06:48:00,66.3,65.4,29.59,NW,307,0.0,1.0,97,0.00,,,0.01,Wunderground v.1.15,2013-07-22 10:48:00,
2013-07-22 06:54:00,66.4,65.5,29.59,NW,306,1.0,2.0,97,0.00,,,0.01,Wunderground v.1.15,2013-07-22 10:54:00,
2013-07-22 06:59:00,66.5,65.6,29.59,NW,320,1.0,1.0,97,0.00,,,0.01,Wunderground v.1.15,2013-07-22 10:59:00,
2013-07-22 07:05:00,66.6,65.7,29.59,WNW,293,0.0,1.0,97,0.00,,,0.01,Wunderground v.1.15,2013-07-22 11:05:00,
2013-07-22 07:10:00,66.7,65.5,29.59,WNW,294,0.0,1.0,96,0.00,,,0.01,Wunderground v.1.15,2013-07-22 11:10:00,
2013-07-22 07:16:00,66.7,65.5,29.60,NW,321,0.0,1.0,96,0.00,,,0.01,Wunderground v.1.15,2013-07-22 11:16:00,
2013-07-22 07:22:00,66.8,65.6,29.60,North,349,0.0,2.0,96,0.00,,,0.01,Wunderground v.1.15,2013-07-22 11:22:00,
2013-07-22 07:28:00,66.8,65.6,29.60,NW,309,0.0,2.0,96,0.00,,,0.01,Wunderground v.1.15,2013-07-22 11:28:00,
2013-07-22 07:34:00,66.8,65.6,29.60,NW,309,0.0,1.0,96,0.00,,,0.01,Wunderground v.1.15,2013-07-22 11:34:00,
2013-07-22 07:40:00,66.9,65.7,29.61,NW,309,0.0,1.0,96,0.00,,,0.01,Wunderground v.1.15,2013-07-22 11:40:00,
2013-07-22 07:48:00,66.9,65.7,29.60,NW,309,0.0,0.0,96,0.00,,,0.01,Wunderground v.1.15,2013-07-22 11:48:00,
2013-07-22 07:54:00,66.9,65.7,29.61,NW,309,0.0,0.0,96,0.00,,,0.01,Wunderground v.1.15,2013-07-22 11:54:00,
2013-07-22 08:00:00,66.9,65.7,29.61,NW,309,0.0,0.0,96,0.00,,,0.01,Wunderground v.1.15,2013-07-22 12:00:00,
2013-07-22 08:06:00,67.0,65.8,29.61,NW,309,0.0,0.0,96,0.00,,,0.01,Wunderground v.1.15,2013-07-22 12:06:00,
2013-07-22 08:11:00,66.9,65.7,29.61,NW,309,0.0,0.0,96,0.00,,,0.01,Wunderground v.1.15,2013-07-22 12:11:00,
2013-07-22 08:17:00,67.0,66.1,29.61,NW,309,0.0,0.0,97,0.00,,,0.01,Wunderground v.1.15,2013-07-22 12:17:00,
2013-07-22 08:23:00,67.2,66.3,29.61,WNW,284,0.0,0.0,97,0.00,,,0.01,Wunderground v.1.15,2013-07-22 12:23:00,
2013-07-22 08:28:00,67.4,66.5,29.62,WNW,284,0.0,0.0,97,0.00,,,0.01,Wunderground v.1.15,2013-07-22 12:28:00,
2013-07-22 08:34:00,67.6,66.4,29.62,WNW,284,0.0,0.0,96,0.00,,,0.01,Wunderground v.1.15,2013-07-22 12:34:00,
2013-07-22 08:40:00,67.9,67.0,29.62,WNW,284,0.0,0.0,97,0.00,,,0.01,Wunderground v.1.15,2013-07-22 12:40:00,
2013-07-22 08:48:00,68.2,67.0,29.63,WNW,284,0.0,0.0,96,0.00,,,0.01,Wunderground v.1.15,2013-07-22 12:48:00,
2013-07-22 08:54:00,68.5,67.3,29.63,West,279,0.0,1.0,96,0.00,,,0.01,Wunderground v.1.15,2013-07-22 12:54:00,
2013-07-22 08:59:00,68.7,67.2,29.63,WNW,282,0.0,0.0,95,0.00,,,0.01,Wunderground v.1.15,2013-07-22 12:59:00,
2013-07-22 09:04:00,69.0,67.5,29.63,NE,37,0.0,1.0,95,0.00,,,0.01,Wunderground v.1.15,2013-07-22 13:04:00,
2013-07-22 09:10:00,69.4,67.3,29.63,NE,37,0.0,1.0,93,0.00,,,0.01,Wunderground v.1.15,2013-07-22 13:10:00,
2013-07-22 09:16:00,69.7,67.6,29.63,NE,37,0.0,1.0,93,0.00,,,0.01,Wunderground v.1.15,2013-07-22 13:16:00,
2013-07-22 09:22:00,70.0,67.9,29.63,NNW,328,0.0,1.0,93,0.00,,,0.01,Wunderground v.1.15,2013-07-22 13:22:00,
2013-07-22 09:28:00,70.4,68.3,29.63,NNW,338,0.0,1.0,93,0.00,,,0.01,Wunderground v.1.15,2013-07-22 13:28:00,
2013-07-22 09:33:00,70.6,68.2,29.63,ENE,77,0.0,2.0,92,0.00,,,0.01,Wunderground v.1.15,2013-07-22 13:33:00,
2013-07-22 09:39:00,71.0,67.6,29.63,WSW,253,0.0,2.0,89,0.00,,,0.01,Wunderground v.1.15,2013-07-22 13:39:00,
2013-07-22 09:45:00,71.6,68.2,29.63,NW,323,1.0,3.0,89,0.00,,,0.01,Wunderground v.1.15,2013-07-22 13:45:00,
2013-07-22 09:50:00,71.9,67.8,29.63,NNW,331,1.0,1.0,87,0.00,,,0.01,Wunderground v.1.15,2013-07-22 13:50:00,
2013-07-22 09:56:00,72.3,68.9,29.63,NNW,336,0.0,2.0,89,0.00,,,0.01,Wunderground v.1.15,2013-07-22 13:56:00,
2013-07-22 10:01:00,72.6,68.2,29.62,ENE,68,0.0,0.0,86,0.00,,,0.01,Wunderground v.1.15,2013-07-22 14:01:00,
2013-07-22 10:06:00,72.8,68.0,29.62,NE,51,0.0,1.0,85,0.00,,,0.01,Wunderground v.1.15,2013-07-22 14:06:00,
2013-07-22 10:12:00,73.2,69.4,29.62,WNW,299,0.0,0.0,88,0.00,,,0.01,Wunderground v.1.15,2013-07-22 14:12:00,
2013-07-22 10:18:00,73.4,67.6,29.62,North,5,0.0,1.0,82,0.00,,,0.01,Wunderground v.1.15,2013-07-22 14:18:00,
2013-07-22 10:24:00,73.6,67.8,29.62,NE,53,0.0,2.0,82,0.00,,,0.01,Wunderground v.1.15,2013-07-22 14:24:00,
2013-07-22 10:30:00,73.9,68.8,29.62,NE,53,0.0,1.0,84,0.00,,,0.01,Wunderground v.1.15,2013-07-22 14:30:00,
2013-07-22 10:35:00,74.3,67.7,29.62,NNW,348,1.0,2.0,80,0.00,,,0.01,Wunderground v.1.15,2013-07-22 14:35:00,
2013-07-22 10:41:00,74.7,68.5,29.62,NNE,21,1.0,1.0,81,0.00,,,0.01,Wunderground v.1.15,2013-07-22 14:41:00,
2013-07-22 10:48:00,75.0,68.4,29.62,SE,136,1.0,1.0,80,0.00,,,0.01,Wunderground v.1.15,2013-07-22 14:48:00,
2013-07-22 10:54:00,75.3,69.1,29.62,NNE,13,1.0,5.0,81,0.00,,,0.01,Wunderground v.1.15,2013-07-22 14:54:00,
2013-07-22 11:00:00,75.5,68.2,29.62,NNW,327,1.0,2.0,78,0.00,,,0.01,Wunderground v.1.15,2013-07-22 15:00:00,
2013-07-22 11:06:00,75.4,67.7,29.62,East,96,1.0,3.0,77,0.00,,,0.01,Wunderground v.1.15,2013-07-22 15:06:00,
2013-07-22 11:11:00,75.5,68.2,29.62,East,86,1.0,1.0,78,0.00,,,0.01,Wunderground v.1.15,2013-07-22 15:11:00,
2013-07-22 11:16:00,75.8,68.4,29.62,NE,53,1.0,1.0,78,0.00,,,0.01,Wunderground v.1.15,2013-07-22 15:16:00,
2013-07-22 11:22:00,76.2,68.5,29.62,South,169,1.0,1.0,77,0.00,,,0.01,Wunderground v.1.15,2013-07-22 15:22:00,
2013-07-22 11:48:00,77.1,67.8,29.62,SE,141,1.0,1.0,73,0.00,,,0.01,Wunderground v.1.15,2013-07-22 15:48:00,
2013-07-22 11:54:00,77.1,68.2,29.62,NNW,336,0.0,2.0,74,0.00,,,0.01,Wunderground v.1.15,2013-07-22 15:54:00,
2013-07-22 11:59:00,77.4,68.5,29.62,NW,323,1.0,2.0,74,0.00,,,0.01,Wunderground v.1.15,2013-07-22 15:59:00,
2013-07-22 12:05:00,77.6,68.3,29.62,NW,325,1.0,1.0,73,0.00,,,0.01,Wunderground v.1.15,2013-07-22 16:05:00,
2013-07-22 12:11:00,78.3,68.9,29.62,WSW,253,1.0,1.0,73,0.00,,,0.01,Wunderground v.1.15,2013-07-22 16:11:00,
2013-07-22 12:17:00,78.7,69.3,29.62,NW,318,1.0,1.0,73,0.00,,,0.01,Wunderground v.1.15,2013-07-22 16:17:00,
2013-07-22 12:23:00,79.0,68.8,29.62,NE,49,1.0,1.0,71,0.00,,,0.01,Wunderground v.1.15,2013-07-22 16:23:00,
2013-07-22 12:29:00,79.0,68.8,29.62,ESE,109,1.0,2.0,71,0.00,,,0.01,Wunderground v.1.15,2013-07-22 16:29:00,
2013-07-22 12:34:00,79.2,68.6,29.61,NNE,22,1.0,2.0,70,0.00,,,0.01,Wunderground v.1.15,2013-07-22 16:34:00,
2013-07-22 12:40:00,79.2,69.4,29.61,ENE,73,0.0,0.0,72,0.00,,,0.01,Wunderground v.1.15,2013-07-22 16:40:00,
2013-07-22 12:48:00,79.7,70.3,29.61,ENE,61,0.0,0.0,73,0.00,,,0.01,Wunderground v.1.15,2013-07-22 16:48:00,
2013-07-22 12:54:00,79.8,68.7,29.60,East,80,0.0,2.0,69,0.00,,,0.01,Wunderground v.1.15,2013-07-22 16:54:00,
2013-07-22 12:59:00,80.0,68.9,29.60,NW,320,1.0,5.0,69,0.00,,,0.01,Wunderground v.1.15,2013-07-22 16:59:00,
2013-07-22 13:04:00,80.5,69.4,29.60,NNE,19,1.0,2.0,69,0.00,,,0.01,Wunderground v.1.15,2013-07-22 17:04:00,
2013-07-22 13:10:00,80.6,69.5,29.59,ENE,63,1.0,1.0,69,0.00,,,0.01,Wunderground v.1.15,2013-07-22 17:10:00,
2013-07-22 13:16:00,80.8,70.1,29.59,SE,146,1.0,2.0,70,0.00,,,0.01,Wunderground v.1.15,2013-07-22 17:16:00,
2013-07-22 13:21:00,80.7,71.2,29.59,NNW,340,1.0,1.0,73,0.00,,,0.01,Wunderground v.1.15,2013-07-22 17:21:00,
2013-07-22 13:26:00,80.1,69.8,29.58,ENE,72,1.0,2.0,71,0.00,,,0.01,Wunderground v.1.15,2013-07-22 17:26:00,
2013-07-22 13:31:00,79.8,70.8,29.58,North,9,1.0,1.0,74,0.00,,,0.01,Wunderground v.1.15,2013-07-22 17:31:00,
2013-07-22 13:37:00,79.9,70.5,29.58,NNE,29,1.0,2.0,73,0.00,,,0.01,Wunderground v.1.15,2013-07-22 17:37:00,
2013-07-22 13:43:00,80.0,71.0,29.58,ESE,117,1.0,2.0,74,0.00,,,0.01,Wunderground v.1.15,2013-07-22 17:43:00,
2013-07-22 13:48:00,80.0,70.6,29.58,NE,49,1.0,1.0,73,0.00,,,0.01,Wunderground v.1.15,2013-07-22 17:48:00,
2013-07-22 13:54:00,80.2,70.8,29.58,NW,312,1.0,3.0,73,0.00,,,0.01,Wunderground v.1.15,2013-07-22 17:54:00,
2013-07-22 14:00:00,80.2,70.4,29.57,NNE,22,2.0,2.0,72,0.00,,,0.01,Wunderground v.1.15,2013-07-22 18:00:00,
2013-07-22 14:05:00,80.1,70.7,29.57,NE,44,1.0,2.0,73,0.00,,,0.01,Wunderground v.1.15,2013-07-22 18:05:00,
2013-07-22 14:11:00,79.7,71.8,29.57,NE,44,0.0,1.0,77,0.00,,,0.01,Wunderground v.1.15,2013-07-22 18:11:00,
2013-07-22 14:16:00,79.6,72.5,29.56,ENE,75,0.0,3.0,79,0.00,,,0.01,Wunderground v.1.15,2013-07-22 18:16:00,
2013-07-22 14:21:00,79.6,71.0,29.56,ENE,60,1.0,2.0,75,0.00,,,0.01,Wunderground v.1.15,2013-07-22 18:21:00,
2013-07-22 14:26:00,80.0,71.4,29.56,NE,34,1.0,2.0,75,0.00,,,0.01,Wunderground v.1.15,2013-07-22 18:26:00,
2013-07-22 14:32:00,80.5,71.8,29.56,NE,40,1.0,2.0,75,0.00,,,0.01,Wunderground v.1.15,2013-07-22 18:32:00,
2013-07-22 14:37:00,80.9,71.8,29.56,NNW,331,1.0,2.0,74,0.00,,,0.01,Wunderground v.1.15,2013-07-22 18:37:00,
2013-07-22 14:43:00,81.2,70.5,29.55,North,9,1.0,1.0,70,0.00,,,0.01,Wunderground v.1.15,2013-07-22 18:43:00,
2013-07-22 14:49:00,81.3,71.0,29.55,NNE,31,1.0,1.0,71,0.00,,,0.01,Wunderground v.1.15,2013-07-22 18:49:00,
2013-07-22 14:55:00,81.3,71.0,29.55,North,5,2.0,4.0,71,0.00,,,0.01,Wunderground v.1.15,2013-07-22 18:55:00,
2013-07-22 15:00:00,80.8,70.5,29.55,NNE,32,2.0,2.0,71,0.00,,,0.01,Wunderground v.1.15,2013-07-22 19:00:00,
2013-07-22 15:06:00,80.4,70.9,29.54,ENE,59,2.0,6.0,73,0.00,,,0.01,Wunderground v.1.15,2013-07-22 19:06:00,
2013-07-22 15:12:00,80.5,71.4,29.54,ENE,74,1.0,2.0,74,0.00,,,0.01,Wunderground v.1.15,2013-07-22 19:12:00,
2013-07-22 15:18:00,80.3,69.2,29.53,SE,126,1.0,3.0,69,0.00,,,0.01,Wunderground v.1.15,2013-07-22 19:18:00,
2013-07-22 15:23:00,80.6,69.9,29.53,SSE,159,1.0,2.0,70,0.00,,,0.01,Wunderground v.1.15,2013-07-22 19:23:00,
2013-07-22 15:28:00,81.1,70.8,29.53,NNW,333,1.0,2.0,71,0.00,,,0.01,Wunderground v.1.15,2013-07-22 19:28:00,
2013-07-22 15:34:00,81.5,70.3,29.53,NW,320,1.0,4.0,69,0.00,,,0.01,Wunderground v.1.15,2013-07-22 19:34:00,
2013-07-22 15:39:00,81.7,69.2,29.53,SSE,150,1.0,4.0,66,0.00,,,0.01,Wunderground v.1.15,2013-07-22 19:39:00,
2013-07-22 15:44:00,81.7,70.1,29.52,ENE,75,1.0,1.0,68,0.00,,,0.01,Wunderground v.1.15,2013-07-22 19:44:00,
2013-07-22 15:50:00,81.2,68.8,29.52,NW,314,1.0,1.0,66,0.00,,,0.01,Wunderground v.1.15,2013-07-22 19:50:00,
2013-07-22 15:56:00,81.0,67.7,29.52,ESE,113,1.0,4.0,64,0.00,,,0.01,Wunderground v.1.15,2013-07-22 19:56:00,
2013-07-22 16:01:00,81.0,67.7,29.52,NNE,26,1.0,2.0,64,0.00,,,0.01,Wunderground v.1.15,2013-07-22 20:01:00,
2013-07-22 16:07:00,81.1,69.1,29.52,East,85,1.0,2.0,67,0.00,,,0.01,Wunderground v.1.15,2013-07-22 20:07:00,
2013-07-22 16:13:00,81.0,68.1,29.52,SE,130,1.0,2.0,65,0.00,,,0.01,Wunderground v.1.15,2013-07-22 20:13:00,
2013-07-22 16:17:00,81.0,68.6,29.52,East,84,1.0,2.0,66,0.00,,,0.01,Wunderground v.1.15,2013-07-22 20:17:00,
2013-07-22 16:18:00,81.0,69.4,29.52,NNE,20,1.0,2.0,68,0.00,,,0.01,Wunderground v.1.15,2013-07-22 20:18:00,
2013-07-22 16:20:00,80.9,68.5,29.52,NNE,17,1.0,1.0,66,0.00,,,0.01,Wunderground v.1.15,2013-07-22 20:20:00,
2013-07-22 16:23:00,80.9,68.5,29.52,NNE,24,1.0,1.0,66,0.00,,,0.01,Wunderground v.1.15,2013-07-22 20:23:00,
2013-07-22 16:25:00,80.8,68.8,29.52,NNE,30,1.0,1.0,67,0.00,,,0.01,Wunderground v.1.15,2013-07-22 20:25:00,
2013-07-22 16:30:00,80.7,69.6,29.52,NNE,30,1.0,1.0,69,0.00,,,0.01,Wunderground v.1.15,2013-07-22 20:30:00,
2013-07-22 16:36:00,80.5,70.6,29.52,NNE,30,0.0,1.0,72,0.00,,,0.01,Wunderground v.1.15,2013-07-22 20:36:00,
2013-07-22 16:41:00,80.2,69.5,29.51,North,360,0.0,0.0,70,0.00,,,0.01,Wunderground v.1.15,2013-07-22 20:41:00,
2013-07-22 16:48:00,80.3,70.0,29.50,NE,46,0.0,1.0,71,0.00,,,0.01,Wunderground v.1.15,2013-07-22 20:48:00,
2013-07-22 16:54:00,80.4,70.5,29.50,North,5,0.0,1.0,72,0.00,,,0.01,Wunderground v.1.15,2013-07-22 20:54:00,
2013-07-22 17:00:00,79.7,69.9,29.50,NE,38,1.0,3.0,72,0.00,,,0.01,Wunderground v.1.15,2013-07-22 21:00:00,
2013-07-22 17:06:00,78.6,70.4,29.50,ENE,63,2.0,3.0,76,0.00,,,0.01,Wunderground v.1.15,2013-07-22 21:06:00,
2013-07-22 17:12:00,78.0,70.6,29.50,ENE,63,1.0,2.0,78,0.00,,,0.01,Wunderground v.1.15,2013-07-22 21:12:00,
2013-07-22 17:18:00,77.8,70.4,29.50,ENE,69,1.0,2.0,78,0.00,,,0.01,Wunderground v.1.15,2013-07-22 21:18:00,
2013-07-22 17:24:00,77.8,70.4,29.50,ENE,61,1.0,3.0,78,0.00,,,0.01,Wunderground v.1.15,2013-07-22 21:24:00,
2013-07-22 17:29:00,77.9,70.9,29.49,NE,40,1.0,3.0,79,0.00,,,0.01,Wunderground v.1.15,2013-07-22 21:29:00,
2013-07-22 17:35:00,78.0,70.6,29.50,NE,56,1.0,2.0,78,0.00,,,0.01,Wunderground v.1.15,2013-07-22 21:35:00,
2013-07-22 17:41:00,78.1,70.7,29.50,NE,56,1.0,1.0,78,0.00,,,0.01,Wunderground v.1.15,2013-07-22 21:41:00,
2013-07-22 17:48:00,78.1,71.1,29.49,NNE,12,1.0,1.0,79,0.00,,,0.01,Wunderground v.1.15,2013-07-22 21:48:00,
2013-07-22 17:54:00,78.2,70.4,29.50,SE,146,0.0,1.0,77,0.00,,,0.02,Wunderground v.1.15,2013-07-22 21:54:00,
2013-07-22 18:00:00,78.2,71.2,29.50,ESE,111,1.0,1.0,79,0.00,,,0.02,Wunderground v.1.15,2013-07-22 22:00:00,
2013-07-22 18:06:00,78.0,71.0,29.50,East,83,0.0,1.0,79,0.00,,,0.02,Wunderground v.1.15,2013-07-22 22:06:00,
2013-07-22 18:12:00,77.6,70.9,29.49,East,83,0.0,1.0,80,0.00,,,0.02,Wunderground v.1.15,2013-07-22 22:12:00,
2013-07-22 18:18:00,77.2,70.2,29.49,ENE,72,1.0,3.0,79,0.00,,,0.02,Wunderground v.1.15,2013-07-22 22:18:00,
2013-07-22 18:24:00,76.9,69.9,29.48,NE,53,2.0,3.0,79,0.00,,,0.02,Wunderground v.1.15,2013-07-22 22:24:00,
2013-07-22 18:30:00,76.8,69.4,29.48,East,97,1.0,3.0,78,0.00,,,0.02,Wunderground v.1.15,2013-07-22 22:30:00,
2013-07-22 18:35:00,77.1,70.1,29.48,ENE,75,2.0,3.0,79,0.00,,,0.02,Wunderground v.1.15,2013-07-22 22:35:00,
2013-07-22 18:41:00,77.1,70.1,29.49,ENE,75,2.0,2.0,79,0.00,,,0.02,Wunderground v.1.15,2013-07-22 22:41:00,
2013-07-22 18:48:00,76.9,69.9,29.49,ENE,75,1.0,2.0,79,0.00,,,0.02,Wunderground v.1.15,2013-07-22 22:48:00,
2013-07-22 18:54:00,76.5,69.9,29.49,ENE,57,1.0,2.0,80,0.00,,,0.02,Wunderground v.1.15,2013-07-22 22:54:00,
2013-07-22 19:00:00,76.0,69.7,29.49,ENE,57,1.0,1.0,81,0.00,,,0.02,Wunderground v.1.15,2013-07-22 23:00:00,
2013-07-22 19:06:00,75.7,69.8,29.50,ENE,57,1.0,2.0,82,0.00,,,0.02,Wunderground v.1.15,2013-07-22 23:06:00,
2013-07-22 19:12:00,75.4,69.5,29.50,ENE,57,1.0,2.0,82,0.00,,,0.02,Wunderground v.1.15,2013-07-22 23:12:00,
2013-07-22 19:18:00,75.4,69.5,29.50,ENE,57,1.0,2.0,82,0.00,,,0.02,Wunderground v.1.15,2013-07-22 23:18:00,
2013-07-22 19:23:00,75.2,69.3,29.50,ENE,57,1.0,1.0,82,0.00,,,0.02,Wunderground v.1.15,2013-07-22 23:23:00,
2013-07-22 19:29:00,74.9,69.4,29.50,ENE,57,1.0,2.0,83,0.00,,,0.02,Wunderground v.1.15,2013-07-22 23:29:00,
2013-07-22 19:34:00,74.3,69.8,29.50,ENE,63,1.0,3.0,86,0.00,,,0.02,Wunderground v.1.15,2013-07-22 23:34:00,
2013-07-22 19:40:00,73.1,70.0,29.50,ENE,67,2.0,2.0,90,0.00,,,0.02,Wunderground v.1.15,2013-07-22 23:40:00,
2013-07-22 19:48:00,72.4,69.9,29.50,ENE,62,1.0,1.0,92,0.00,,,0.02,Wunderground v.1.15,2013-07-22 23:48:00,
2013-07-22 19:53:00,72.0,69.9,29.50,ENE,63,0.0,1.0,93,0.00,,,0.02,Wunderground v.1.15,2013-07-22 23:53:00,
2013-07-22 19:59:00,71.8,70.0,29.50,ENE,63,0.0,3.0,94,0.00,,,0.02,Wunderground v.1.15,2013-07-22 23:59:00,
2013-07-22 20:05:00,71.7,69.9,29.50,ENE,63,0.0,0.0,94,0.00,,,0.02,Wunderground v.1.15,2013-07-23 00:05:00,
2013-07-22 20:10:00,71.6,69.8,29.50,ENE,63,0.0,0.0,94,0.00,,,0.02,Wunderground v.1.15,2013-07-23 00:10:00,
2013-07-22 20:16:00,71.5,69.7,29.50,ENE,63,0.0,0.0,94,0.00,,,0.02,Wunderground v.1.15,2013-07-23 00:16:00,
2013-07-22 20:22:00,71.3,69.5,29.50,ENE,62,0.0,0.0,94,0.00,,,0.02,Wunderground v.1.15,2013-07-23 00:22:00,
2013-07-22 20:27:00,71.1,69.3,29.50,ENE,62,0.0,0.0,94,0.00,,,0.02,Wunderground v.1.15,2013-07-23 00:27:00,
2013-07-22 20:33:00,71.0,69.2,29.50,ENE,63,0.0,0.0,94,0.00,,,0.02,Wunderground v.1.15,2013-07-23 00:33:00,
2013-07-22 20:38:00,70.7,68.9,29.50,ENE,61,0.0,1.0,94,0.00,,,0.02,Wunderground v.1.15,2013-07-23 00:38:00,
2013-07-22 20:44:00,70.4,68.6,29.50,ENE,61,0.0,1.0,94,0.00,,,0.02,Wunderground v.1.15,2013-07-23 00:44:00,
2013-07-22 20:50:00,70.3,68.8,29.50,ENE,59,0.0,3.0,95,0.00,,,0.02,Wunderground v.1.15,2013-07-23 00:50:00,
2013-07-22 20:56:00,70.2,68.7,29.50,ENE,59,0.0,3.0,95,0.00,,,0.02,Wunderground v.1.15,2013-07-23 00:56:00,
2013-07-22 21:01:00,70.2,68.7,29.50,ENE,59,0.0,2.0,95,0.00,,,0.02,Wunderground v.1.15,2013-07-23 01:01:00,
2013-07-22 21:07:00,70.1,68.6,29.51,ENE,59,0.0,2.0,95,0.00,,,0.02,Wunderground v.1.15,2013-07-23 01:07:00,
2013-07-22 21:13:00,70.2,69.0,29.51,ENE,59,0.0,1.0,96,0.00,,,0.02,Wunderground v.1.15,2013-07-23 01:13:00,
2013-07-22 21:19:00,70.3,69.1,29.51,ENE,59,0.0,2.0,96,0.00,,,0.02,Wunderground v.1.15,2013-07-23 01:19:00,
2013-07-22 21:25:00,70.3,69.1,29.51,NE,51,0.0,2.0,96,0.00,,,0.02,Wunderground v.1.15,2013-07-23 01:25:00,
2013-07-22 21:30:00,70.3,69.1,29.51,North,5,1.0,1.0,96,0.00,,,0.02,Wunderground v.1.15,2013-07-23 01:30:00,
2013-07-22 21:36:00,70.4,69.2,29.51,North,5,1.0,1.0,96,0.00,,,0.02,Wunderground v.1.15,2013-07-23 01:36:00,
2013-07-22 21:48:00,70.3,69.1,29.51,North,5,0.0,0.0,96,0.00,,,0.02,Wunderground v.1.15,2013-07-23 01:48:00,
2013-07-22 21:54:00,70.2,69.0,29.51,SE,136,0.0,2.0,96,0.00,,,0.02,Wunderground v.1.15,2013-07-23 01:54:00,
2013-07-22 22:00:00,70.1,68.9,29.51,SE,136,0.0,0.0,96,0.00,,,0.02,Wunderground v.1.15,2013-07-23 02:00:00,
2013-07-22 22:06:00,70.1,68.9,29.51,SE,136,0.0,0.0,96,0.00,,,0.02,Wunderground v.1.15,2013-07-23 02:06:00,
2013-07-22 22:11:00,70.0,68.8,29.50,SE,136,0.0,0.0,96,0.00,,,0.02,Wunderground v.1.15,2013-07-23 02:11:00,
2013-07-22 22:17:00,69.8,68.6,29.50,SE,136,0.0,0.0,96,0.00,,,0.02,Wunderground v.1.15,2013-07-23 02:17:00,
2013-07-22 22:23:00,69.7,68.5,29.51,SE,136,0.0,0.0,96,0.00,,,0.02,Wunderground v.1.15,2013-07-23 02:23:00,
2013-07-22 22:28:00,69.4,67.9,29.51,SE,136,0.0,0.0,95,0.00,,,0.02,Wunderground v.1.15,2013-07-23 02:28:00,
2013-07-22 22:34:00,69.3,68.1,29.51,SE,138,0.0,1.0,96,0.00,,,0.02,Wunderground v.1.15,2013-07-23 02:34:00,
2013-07-22 22:40:00,69.2,68.0,29.51,SW,227,0.0,0.0,96,0.00,,,0.02,Wunderground v.1.15,2013-07-23 02:40:00,
2013-07-22 22:45:00,69.2,68.0,29.52,SW,227,0.0,0.0,96,0.00,,,0.02,Wunderground v.1.15,2013-07-23 02:45:00,
2013-07-22 22:51:00,69.2,68.0,29.52,SW,221,0.0,0.0,96,0.00,,,0.02,Wunderground v.1.15,2013-07-23 02:51:00,
2013-07-22 22:57:00,69.1,67.9,29.53,SW,221,0.0,3.0,96,0.00,,,0.02,Wunderground v.1.15,2013-07-23 02:57:00,
2013-07-22 23:03:00,69.1,67.9,29.53,SW,232,0.0,0.0,96,0.00,,,0.02,Wunderground v.1.15,2013-07-23 03:03:00,
2013-07-22 23:08:00,69.1,68.2,29.53,SW,232,0.0,0.0,97,0.00,,,0.02,Wunderground v.1.15,2013-07-23 03:08:00,
2013-07-22 23:14:00,69.1,68.2,29.53,SW,232,0.0,0.0,97,0.00,,,0.02,Wunderground v.1.15,2013-07-23 03:14:00,
2013-07-22 23:20:00,69.0,67.8,29.53,SW,232,0.0,0.0,96,0.00,,,0.02,Wunderground v.1.15,2013-07-23 03:20:00,
2013-07-22 23:26:00,68.9,67.7,29.53,SW,236,0.0,0.0,96,0.00,,,0.02,Wunderground v.1.15,2013-07-23 03:26:00,
2013-07-22 23:32:00,68.9,67.7,29.53,SW,236,0.0,0.0,96,0.00,,,0.02,Wunderground v.1.15,2013-07-23 03:32:00,
2013-07-22 23:37:00,68.8,67.6,29.53,WSW,237,0.0,0.0,96,0.00,,,0.02,Wunderground v.1.15,2013-07-23 03:37:00,
2013-07-22 23:43:00,68.6,67.4,29.53,WSW,237,0.0,0.0,96,0.00,,,0.02,Wunderground v.1.15,2013-07-23 03:43:00,
2013-07-22 23:48:00,68.6,67.4,29.53,WSW,237,0.0,0.0,96,0.00,,,0.02,Wunderground v.1.15,2013-07-23 03:48:00,
2013-07-22 23:54:00,68.5,67.6,29.53,WNW,292,0.0,2.0,97,0.00,,,0.02,Wunderground v.1.15,2013-07-23 03:54:00,
2013-07-22 23:59:00,68.4,67.2,29.53,WNW,292,0.0,1.0,96,0.00,,,0.02,Wunderground v.1.15,2013-07-23 03:59:00,